Time,TemperatureF,DewpointF,PressureIn,WindDirection,WindDirectionDegrees,WindSpeedMPH,WindSpeedGustMPH,Humidity,HourlyPrecipIn,Conditions,Clouds,dailyrainin,SolarRadiationWatts/m^2,SoftwareType,DateUTC
2013-02-05 00:00:00,61.4,56.8,30.07,NW,319,2.0,3.0,85,0.00,,,0.00,0,Wunderground v.1.15,2013-02-05 10:00:00,
2013-02-05 00:10:00,62.5,57.3,30.06,NW,306,3.0,3.0,83,0.00,,,0.00,0,Wunderground v.1.15,2013-02-05 10:10:00,
2013-02-05 00:15:00,62.9,57.7,30.07,NW,306,3.0,3.0,83,0.00,,,0.00,0,Wunderground v.1.15,2013-02-05 10:15:00,
2013-02-05 00:20:00,63.0,57.4,30.07,NW,307,2.0,2.0,82,0.00,,,0.00,0,Wunderground v.1.15,2013-02-05 10:20:00,
2013-02-05 00:30:00,63.5,57.9,30.07,North,360,2.0,4.0,82,0.00,,,0.00,0,Wunderground v.1.15,2013-02-05 10:30:00,
2013-02-05 00:35:00,63.7,58.1,30.07,NNW,343,3.0,4.0,82,0.00,,,0.00,0,Wunderground v.1.15,2013-02-05 10:35:00,
2013-02-05 00:40:00,63.3,57.7,30.07,NNW,343,3.0,3.0,82,0.00,,,0.00,0,Wunderground v.1.15,2013-02-05 10:40:00,
2013-02-05 00:45:00,62.7,57.5,30.06,NNW,343,1.0,3.0,83,0.00,,,0.00,0,Wunderground v.1.15,2013-02-05 10:45:00,
2013-02-05 00:50:00,62.1,57.2,30.06,NNW,343,2.0,2.0,84,0.00,,,0.00,0,Wunderground v.1.15,2013-02-05 10:50:00,
2013-02-05 00:55:00,61.7,57.1,30.06,NNW,343,1.0,2.0,85,0.00,,,0.00,0,Wunderground v.1.15,2013-02-05 10:55:00,
2013-02-05 01:00:00,61.0,56.8,30.07,NNW,343,0.0,2.0,86,0.00,,,0.00,0,Wunderground v.1.15,2013-02-05 11:00:00,
2013-02-05 01:10:00,60.8,56.9,30.06,NNW,343,0.0,0.0,87,0.00,,,0.00,0,Wunderground v.1.15,2013-02-05 11:10:00,
2013-02-05 01:15:00,60.7,56.8,30.07,NNW,343,0.0,1.0,87,0.00,,,0.00,0,Wunderground v.1.15,2013-02-05 11:15:00,
2013-02-05 01:20:00,60.4,56.8,30.06,NNW,343,1.0,1.0,88,0.00,,,0.00,0,Wunderground v.1.15,2013-02-05 11:20:00,
2013-02-05 01:25:00,60.4,57.1,30.06,NNW,343,2.0,2.0,89,0.00,,,0.00,0,Wunderground v.1.15,2013-02-05 11:25:00,
2013-02-05 01:30:00,61.0,57.4,30.06,NNW,343,2.0,2.0,88,0.00,,,0.00,0,Wunderground v.1.15,2013-02-05 11:30:00,
2013-02-05 01:35:00,61.2,57.6,30.06,NNW,343,2.0,5.0,88,0.00,,,0.00,0,Wunderground v.1.15,2013-02-05 11:35:00,
2013-02-05 01:45:00,61.3,57.7,30.05,NNW,343,3.0,4.0,88,0.00,,,0.00,0,Wunderground v.1.15,2013-02-05 11:45:00,
2013-02-05 01:50:00,61.2,57.3,30.05,North,350,2.0,2.0,87,0.00,,,0.00,0,Wunderground v.1.15,2013-02-05 11:50:00,
2013-02-05 01:55:00,61.5,57.6,30.05,NW,309,3.0,5.0,87,0.00,,,0.00,0,Wunderground v.1.15,2013-02-05 11:55:00,
2013-02-05 02:00:00,62.0,57.8,30.05,NW,306,4.0,4.0,86,0.00,,,0.00,0,Wunderground v.1.15,2013-02-05 12:00:00,
2013-02-05 02:10:00,61.9,58.0,30.05,NW,307,2.0,2.0,87,0.00,,,0.00,0,Wunderground v.1.15,2013-02-05 12:10:00,
2013-02-05 02:15:00,62.3,58.4,30.04,NW,307,2.0,2.0,87,0.00,,,0.00,0,Wunderground v.1.15,2013-02-05 12:15:00,
2013-02-05 02:20:00,62.4,58.2,30.04,NW,307,2.0,3.0,86,0.00,,,0.00,0,Wunderground v.1.15,2013-02-05 12:20:00,
2013-02-05 02:25:00,62.0,58.1,30.04,NW,307,3.0,4.0,87,0.00,,,0.00,0,Wunderground v.1.15,2013-02-05 12:25:00,
2013-02-05 02:30:00,62.1,58.2,30.04,NW,311,3.0,3.0,87,0.00,,,0.00,0,Wunderground v.1.15,2013-02-05 12:30:00,
2013-02-05 02:35:00,62.1,57.9,30.03,NW,311,2.0,3.0,86,0.00,,,0.00,0,Wunderground v.1.15,2013-02-05 12:35:00,
2013-02-05 02:40:00,62.2,57.6,30.03,NW,311,0.0,0.0,85,0.00,,,0.00,0,Wunderground v.1.15,2013-02-05 12:40:00,
2013-02-05 02:50:00,61.4,57.2,30.04,NW,311,0.0,0.0,86,0.00,,,0.00,0,Wunderground v.1.15,2013-02-05 12:50:00,
2013-02-05 02:55:00,61.2,57.3,30.03,NW,310,1.0,4.0,87,0.00,,,0.00,0,Wunderground v.1.15,2013-02-05 12:55:00,
2013-02-05 03:00:00,61.8,57.2,30.03,NW,310,4.0,4.0,85,0.00,,,0.00,0,Wunderground v.1.15,2013-02-05 13:00:00,
2013-02-05 03:10:00,62.8,57.6,30.03,West,281,4.0,4.0,83,0.00,,,0.00,0,Wunderground v.1.15,2013-02-05 13:10:00,
2013-02-05 03:15:00,63.2,57.9,30.03,SW,229,3.0,4.0,83,0.00,,,0.00,0,Wunderground v.1.15,2013-02-05 13:15:00,
2013-02-05 03:20:00,64.4,60.1,30.03,SW,220,4.0,4.0,86,0.00,,,0.00,0,Wunderground v.1.15,2013-02-05 13:20:00,
2013-02-05 03:25:00,64.7,59.1,30.03,WSW,247,4.0,5.0,82,0.00,,,0.00,0,Wunderground v.1.15,2013-02-05 13:25:00,
2013-02-05 03:30:00,64.2,58.9,30.03,West,276,4.0,4.0,83,0.00,,,0.00,0,Wunderground v.1.15,2013-02-05 13:30:00,
2013-02-05 03:35:00,64.3,59.4,30.02,West,277,4.0,4.0,84,0.00,,,0.00,0,Wunderground v.1.15,2013-02-05 13:35:00,
2013-02-05 03:40:00,64.3,59.4,30.03,WNW,282,5.0,5.0,84,0.00,,,0.00,0,Wunderground v.1.15,2013-02-05 13:40:00,
2013-02-05 03:50:00,64.2,59.3,30.03,West,275,3.0,4.0,84,0.00,,,0.00,0,Wunderground v.1.15,2013-02-05 13:50:00,
2013-02-05 03:55:00,64.1,59.5,30.03,West,275,3.0,4.0,85,0.00,,,0.00,0,Wunderground v.1.15,2013-02-05 13:55:00,
2013-02-05 04:00:00,63.9,59.3,30.03,WNW,291,3.0,4.0,85,0.00,,,0.00,0,Wunderground v.1.15,2013-02-05 14:00:00,
2013-02-05 04:10:00,63.7,59.4,30.03,WNW,291,1.0,2.0,86,0.00,,,0.00,0,Wunderground v.1.15,2013-02-05 14:10:00,
2013-02-05 04:15:00,63.4,59.1,30.03,WNW,291,2.0,2.0,86,0.00,,,0.00,0,Wunderground v.1.15,2013-02-05 14:15:00,
2013-02-05 04:20:00,63.1,59.2,30.04,WNW,291,1.0,1.0,87,0.00,,,0.00,0,Wunderground v.1.15,2013-02-05 14:20:00,
2013-02-05 04:25:00,62.5,58.9,30.03,WNW,291,0.0,1.0,88,0.00,,,0.00,0,Wunderground v.1.15,2013-02-05 14:25:00,
2013-02-05 04:35:00,61.8,58.5,30.03,WNW,291,2.0,3.0,89,0.00,,,0.00,0,Wunderground v.1.15,2013-02-05 14:35:00,
2013-02-05 04:40:00,62.3,59.3,30.03,West,260,4.0,4.0,90,0.00,,,0.00,0,Wunderground v.1.15,2013-02-05 14:40:00,
2013-02-05 04:45:00,63.1,59.2,30.04,West,269,4.0,4.0,87,0.00,,,0.00,0,Wunderground v.1.15,2013-02-05 14:45:00,
2013-02-05 04:55:00,63.2,58.6,30.04,WNW,302,4.0,6.0,85,0.00,,,0.00,0,Wunderground v.1.15,2013-02-05 14:55:00,
2013-02-05 05:00:00,63.4,58.1,30.05,West,278,5.0,5.0,83,0.00,,,0.00,0,Wunderground v.1.15,2013-02-05 15:00:00,
2013-02-05 05:10:00,63.3,58.7,30.05,West,269,3.0,3.0,85,0.00,,,0.00,0,Wunderground v.1.15,2013-02-05 15:10:00,
2013-02-05 05:15:00,63.3,59.0,30.05,West,269,2.0,3.0,86,0.00,,,0.00,0,Wunderground v.1.15,2013-02-05 15:15:00,
2013-02-05 05:20:00,63.4,59.5,30.05,West,269,1.0,1.0,87,0.00,,,0.00,0,Wunderground v.1.15,2013-02-05 15:20:00,
2013-02-05 05:25:00,62.9,59.0,30.06,West,269,1.0,1.0,87,0.00,,,0.00,0,Wunderground v.1.15,2013-02-05 15:25:00,
2013-02-05 05:30:00,62.6,59.0,30.05,West,269,1.0,3.0,88,0.00,,,0.00,0,Wunderground v.1.15,2013-02-05 15:30:00,
2013-02-05 05:35:00,62.3,59.0,30.05,West,269,2.0,3.0,89,0.00,,,0.00,0,Wunderground v.1.15,2013-02-05 15:35:00,
2013-02-05 05:40:00,62.0,58.7,30.05,West,269,2.0,3.0,89,0.00,,,0.00,0,Wunderground v.1.15,2013-02-05 15:40:00,
2013-02-05 05:45:00,61.8,58.8,30.05,West,272,2.0,4.0,90,0.00,,,0.00,0,Wunderground v.1.15,2013-02-05 15:45:00,
2013-02-05 05:55:00,62.9,59.6,30.06,WNW,294,4.0,4.0,89,0.00,,,0.00,0,Wunderground v.1.15,2013-02-05 15:55:00,
2013-02-05 06:00:00,63.1,59.8,30.06,WNW,294,3.0,3.0,89,0.00,,,0.00,0,Wunderground v.1.15,2013-02-05 16:00:00,
2013-02-05 06:10:00,64.0,61.0,30.06,WNW,296,3.0,4.0,90,0.00,,,0.00,0,Wunderground v.1.15,2013-02-05 16:10:00,
2013-02-05 06:15:00,63.7,60.4,30.06,WNW,296,3.0,4.0,89,0.00,,,0.00,0,Wunderground v.1.15,2013-02-05 16:15:00,
2013-02-05 06:25:00,63.5,60.5,30.06,WNW,296,2.0,4.0,90,0.00,,,0.00,0,Wunderground v.1.15,2013-02-05 16:25:00,
2013-02-05 06:30:00,63.7,60.7,30.07,WNW,296,3.0,3.0,90,0.00,,,0.00,0,Wunderground v.1.15,2013-02-05 16:30:00,
2013-02-05 06:35:00,63.7,60.4,30.07,WNW,296,2.0,3.0,89,0.00,,,0.00,0,Wunderground v.1.15,2013-02-05 16:35:00,
2013-02-05 06:40:00,63.6,60.6,30.07,WNW,296,1.0,3.0,90,0.00,,,0.00,0,Wunderground v.1.15,2013-02-05 16:40:00,
2013-02-05 06:45:00,63.8,60.8,30.07,WNW,294,2.0,3.0,90,0.00,,,0.00,0,Wunderground v.1.15,2013-02-05 16:45:00,
2013-02-05 06:50:00,63.8,60.8,30.07,WNW,294,1.0,1.0,90,0.00,,,0.00,0,Wunderground v.1.15,2013-02-05 16:50:00,
2013-02-05 07:00:00,63.1,60.1,30.08,WNW,294,1.0,1.0,90,0.00,,,0.00,5,Wunderground v.1.15,2013-02-05 17:00:00,
2013-02-05 07:10:00,62.0,59.6,30.08,WNW,294,2.0,2.0,92,0.00,,,0.00,11,Wunderground v.1.15,2013-02-05 17:10:00,
2013-02-05 07:20:00,62.0,60.0,30.08,WNW,294,2.0,2.0,93,0.00,,,0.00,33,Wunderground v.1.15,2013-02-05 17:20:00,
2013-02-05 07:25:00,63.1,61.0,30.08,WNW,294,2.0,3.0,93,0.00,,,0.00,49,Wunderground v.1.15,2013-02-05 17:25:00,
2013-02-05 07:30:00,64.1,61.1,30.10,NE,53,2.0,4.0,90,0.00,,,0.00,54,Wunderground v.1.15,2013-02-05 17:30:00,
2013-02-05 07:35:00,64.5,61.8,30.10,South,184,3.0,4.0,91,0.00,,,0.00,40,Wunderground v.1.15,2013-02-05 17:35:00,
2013-02-05 07:40:00,65.0,62.0,30.10,South,184,2.0,3.0,90,0.00,,,0.00,30,Wunderground v.1.15,2013-02-05 17:40:00,
2013-02-05 07:50:00,64.8,61.8,30.10,South,184,2.0,2.0,90,0.00,,,0.00,72,Wunderground v.1.15,2013-02-05 17:50:00,
2013-02-05 07:55:00,64.9,62.2,30.10,SSW,192,2.0,2.0,91,0.00,,,0.00,127,Wunderground v.1.15,2013-02-05 17:55:00,
2013-02-05 08:00:00,65.5,62.5,30.10,SSW,192,3.0,3.0,90,0.00,,,0.00,72,Wunderground v.1.15,2013-02-05 18:00:00,
2013-02-05 08:10:00,66.4,63.1,30.10,SSW,192,1.0,1.0,89,0.00,,,0.00,248,Wunderground v.1.15,2013-02-05 18:10:00,
2013-02-05 08:15:00,67.1,63.4,30.11,NNE,27,2.0,6.0,88,0.00,,,0.00,246,Wunderground v.1.15,2013-02-05 18:15:00,
2013-02-05 08:20:00,67.5,63.8,30.11,NE,40,4.0,7.0,88,0.00,,,0.00,371,Wunderground v.1.15,2013-02-05 18:20:00,
2013-02-05 08:25:00,67.8,63.8,30.10,WNW,282,4.0,7.0,87,0.00,,,0.00,260,Wunderground v.1.15,2013-02-05 18:25:00,
2013-02-05 08:35:00,68.4,63.7,30.10,ENE,78,3.0,6.0,85,0.00,,,0.00,387,Wunderground v.1.15,2013-02-05 18:35:00,
2013-02-05 08:40:00,69.0,64.0,30.10,NNW,348,4.0,4.0,84,0.00,,,0.00,424,Wunderground v.1.15,2013-02-05 18:40:00,
2013-02-05 08:45:00,69.4,64.4,30.10,North,355,2.0,4.0,84,0.00,,,0.00,264,Wunderground v.1.15,2013-02-05 18:45:00,
2013-02-05 08:50:00,70.1,64.7,30.10,ENE,67,3.0,6.0,83,0.00,,,0.00,527,Wunderground v.1.15,2013-02-05 18:50:00,
2013-02-05 09:00:00,71.4,64.5,30.10,ENE,61,8.0,13.0,79,0.00,,,0.00,610,Wunderground v.1.15,2013-02-05 19:00:00,
2013-02-05 09:10:00,71.3,64.8,30.10,East,84,9.0,12.0,80,0.00,,,0.00,596,Wunderground v.1.15,2013-02-05 19:10:00,
2013-02-05 09:15:00,71.3,64.8,30.10,ENE,63,8.0,12.0,80,0.00,,,0.00,283,Wunderground v.1.15,2013-02-05 19:15:00,
2013-02-05 09:20:00,71.2,64.7,30.10,ESE,117,8.0,14.0,80,0.00,,,0.00,318,Wunderground v.1.15,2013-02-05 19:20:00,
2013-02-05 09:25:00,70.9,64.1,30.10,East,92,10.0,14.0,79,0.00,,,0.00,624,Wunderground v.1.15,2013-02-05 19:25:00,
2013-02-05 09:30:00,71.4,64.9,30.11,ENE,61,9.0,11.0,80,0.00,,,0.00,805,Wunderground v.1.15,2013-02-05 19:30:00,
2013-02-05 09:35:00,71.6,64.7,30.10,East,90,9.0,11.0,79,0.00,,,0.00,357,Wunderground v.1.15,2013-02-05 19:35:00,
2013-02-05 09:40:00,71.9,65.4,30.11,NE,36,9.0,10.0,80,0.00,,,0.00,373,Wunderground v.1.15,2013-02-05 19:40:00,
2013-02-05 09:50:00,72.1,65.2,30.10,SE,129,9.0,13.0,79,0.00,,,0.00,867,Wunderground v.1.15,2013-02-05 19:50:00,
2013-02-05 09:55:00,72.5,65.2,30.10,East,92,10.0,13.0,78,0.00,,,0.00,868,Wunderground v.1.15,2013-02-05 19:55:00,
2013-02-05 10:00:00,73.1,65.8,30.10,SE,134,10.0,10.0,78,0.00,,,0.00,814,Wunderground v.1.15,2013-02-05 20:00:00,
2013-02-05 10:10:00,73.2,65.2,30.10,ENE,76,9.0,12.0,76,0.00,,,0.00,923,Wunderground v.1.15,2013-02-05 20:10:00,
2013-02-05 10:15:00,72.9,65.3,30.09,NE,55,11.0,12.0,77,0.00,,,0.00,462,Wunderground v.1.15,2013-02-05 20:15:00,
2013-02-05 10:25:00,72.6,64.6,30.10,NE,34,11.0,15.0,76,0.00,,,0.00,327,Wunderground v.1.15,2013-02-05 20:25:00,
2013-02-05 10:30:00,72.7,65.1,30.10,ENE,77,10.0,17.0,77,0.00,,,0.00,345,Wunderground v.1.15,2013-02-05 20:30:00,
2013-02-05 10:35:00,72.8,64.8,30.09,SE,129,10.0,17.0,76,0.00,,,0.00,346,Wunderground v.1.15,2013-02-05 20:35:00,
2013-02-05 10:40:00,72.9,64.9,30.09,East,98,10.0,10.0,76,0.00,,,0.00,592,Wunderground v.1.15,2013-02-05 20:40:00,
2013-02-05 10:45:00,73.2,65.2,30.09,East,88,10.0,10.0,76,0.00,,,0.00,330,Wunderground v.1.15,2013-02-05 20:45:00,
2013-02-05 10:50:00,73.2,65.9,30.09,ENE,67,9.0,12.0,78,0.00,,,0.00,1041,Wunderground v.1.15,2013-02-05 20:50:00,
2013-02-05 11:00:00,74.3,66.2,30.09,SSE,159,10.0,11.0,76,0.00,,,0.00,995,Wunderground v.1.15,2013-02-05 21:00:00,
2013-02-05 11:10:00,73.8,66.1,30.08,ESE,113,12.0,18.0,77,0.00,,,0.00,1046,Wunderground v.1.15,2013-02-05 21:10:00,
2013-02-05 11:15:00,74.1,66.0,30.08,ESE,104,12.0,18.0,76,0.00,,,0.00,965,Wunderground v.1.15,2013-02-05 21:15:00,
2013-02-05 11:25:00,74.3,66.6,30.08,ESE,118,10.0,16.0,77,0.00,,,0.00,475,Wunderground v.1.15,2013-02-05 21:25:00,
2013-02-05 11:30:00,74.2,66.5,30.08,SE,126,10.0,26.0,77,0.00,,,0.00,417,Wunderground v.1.15,2013-02-05 21:30:00,
2013-02-05 11:35:00,73.5,66.2,30.08,ENE,78,12.0,26.0,78,0.00,,,0.00,334,Wunderground v.1.15,2013-02-05 21:35:00,
2013-02-05 11:40:00,73.1,66.2,30.07,East,79,12.0,12.0,79,0.00,,,0.00,381,Wunderground v.1.15,2013-02-05 21:40:00,
2013-02-05 11:45:00,73.3,66.0,30.07,NE,46,11.0,12.0,78,0.00,,,0.00,330,Wunderground v.1.15,2013-02-05 21:45:00,
2013-02-05 11:55:00,73.7,67.5,30.06,ESE,107,11.0,11.0,81,0.00,,,0.00,993,Wunderground v.1.15,2013-02-05 21:55:00,
2013-02-05 12:00:00,73.9,67.0,30.06,SE,135,11.0,12.0,79,0.00,,,0.00,1083,Wunderground v.1.15,2013-02-05 22:00:00,
2013-02-05 12:10:00,73.9,66.2,30.06,ENE,78,10.0,11.0,77,0.00,,,0.00,752,Wunderground v.1.15,2013-02-05 22:10:00,
2013-02-05 12:20:00,74.4,66.0,30.05,ESE,123,11.0,17.0,75,0.00,,,0.00,348,Wunderground v.1.15,2013-02-05 22:20:00,
2013-02-05 12:25:00,74.4,66.7,30.05,ENE,72,10.0,19.0,77,0.00,,,0.00,436,Wunderground v.1.15,2013-02-05 22:25:00,
2013-02-05 12:30:00,74.6,68.0,30.05,ESE,106,9.0,9.0,80,0.00,,,0.00,993,Wunderground v.1.15,2013-02-05 22:30:00,
2013-02-05 12:35:00,74.7,67.0,30.05,NE,37,10.0,10.0,77,0.00,,,0.00,956,Wunderground v.1.15,2013-02-05 22:35:00,
2013-02-05 12:40:00,74.9,66.8,30.05,SE,139,10.0,11.0,76,0.00,,,0.00,478,Wunderground v.1.15,2013-02-05 22:40:00,
2013-02-05 12:45:00,74.9,66.4,30.04,East,98,11.0,11.0,75,0.00,,,0.00,1016,Wunderground v.1.15,2013-02-05 22:45:00,
2013-02-05 12:55:00,74.9,67.2,30.04,SE,137,11.0,13.0,77,0.00,,,0.00,290,Wunderground v.1.15,2013-02-05 22:55:00,
2013-02-05 13:00:00,74.5,67.2,30.04,SE,134,11.0,13.0,78,0.00,,,0.00,789,Wunderground v.1.15,2013-02-05 23:00:00,
2013-02-05 13:10:00,74.5,67.6,30.04,ESE,106,10.0,12.0,79,0.00,,,0.00,264,Wunderground v.1.15,2013-02-05 23:10:00,
2013-02-05 13:15:00,74.0,67.1,30.03,ESE,118,10.0,12.0,79,0.00,,,0.00,262,Wunderground v.1.15,2013-02-05 23:15:00,
2013-02-05 13:20:00,73.4,66.9,30.03,ESE,107,11.0,12.0,80,0.00,,,0.00,243,Wunderground v.1.15,2013-02-05 23:20:00,
2013-02-05 13:30:00,72.8,66.6,30.03,SE,136,12.0,12.0,81,0.00,,,0.00,301,Wunderground v.1.15,2013-02-05 23:30:00,
2013-02-05 13:35:00,72.8,66.6,30.03,SSE,155,11.0,13.0,81,0.00,,,0.00,248,Wunderground v.1.15,2013-02-05 23:35:00,
2013-02-05 13:40:00,72.6,66.8,30.03,SE,128,11.0,11.0,82,0.00,,,0.00,237,Wunderground v.1.15,2013-02-05 23:40:00,
2013-02-05 13:45:00,72.5,66.7,30.03,ESE,116,10.0,11.0,82,0.00,,,0.00,234,Wunderground v.1.15,2013-02-05 23:45:00,
2013-02-05 13:55:00,72.7,66.5,30.02,ESE,110,10.0,12.0,81,0.00,,,0.00,237,Wunderground v.1.15,2013-02-05 23:55:00,
2013-02-05 14:00:00,72.7,66.2,30.02,East,87,9.0,15.0,80,0.00,,,0.00,250,Wunderground v.1.15,2013-02-06 00:00:00,
2013-02-05 14:10:00,72.9,65.6,30.02,East,94,8.0,11.0,78,0.00,,,0.00,234,Wunderground v.1.15,2013-02-06 00:10:00,
2013-02-05 14:15:00,73.2,65.9,30.02,SE,139,8.0,11.0,78,0.00,,,0.00,239,Wunderground v.1.15,2013-02-06 00:15:00,
2013-02-05 14:25:00,73.3,65.7,30.02,ESE,119,8.0,8.0,77,0.00,,,0.00,269,Wunderground v.1.15,2013-02-06 00:25:00,
2013-02-05 14:30:00,73.2,66.7,30.02,ENE,75,7.0,7.0,80,0.00,,,0.00,246,Wunderground v.1.15,2013-02-06 00:30:00,
2013-02-05 14:35:00,73.1,65.8,30.02,ESE,119,7.0,10.0,78,0.00,,,0.00,172,Wunderground v.1.15,2013-02-06 00:35:00,
2013-02-05 14:50:00,72.2,65.3,30.02,ENE,71,8.0,12.0,79,0.00,,,0.00,193,Wunderground v.1.15,2013-02-06 00:50:00,
2013-02-05 15:00:00,72.5,65.2,30.02,SSE,167,6.0,12.0,78,0.00,,,0.00,192,Wunderground v.1.15,2013-02-06 01:00:00,
2013-02-05 15:20:00,73.2,65.2,30.02,ESE,119,2.0,3.0,76,0.00,,,0.00,165,Wunderground v.1.15,2013-02-06 01:20:00,
2013-02-05 15:41:00,72.7,66.9,30.01,SSE,157,2.0,2.0,82,0.00,,,0.00,160,Wunderground v.1.15,2013-02-06 01:41:00,
2013-02-05 15:50:00,72.1,67.0,30.02,South,182,3.0,3.0,84,0.00,,,0.00,142,Wunderground v.1.15,2013-02-06 01:50:00,
2013-02-05 15:56:00,71.9,67.1,30.02,SSW,213,3.0,7.0,85,0.00,,,0.00,160,Wunderground v.1.15,2013-02-06 01:56:00,
2013-02-05 16:06:00,71.3,66.9,30.02,SSW,209,5.0,8.0,86,0.00,,,0.00,144,Wunderground v.1.15,2013-02-06 02:06:00,
2013-02-05 16:20:00,71.5,67.4,30.02,SSW,213,5.0,6.0,87,0.00,,,0.00,214,Wunderground v.1.15,2013-02-06 02:20:00,
2013-02-05 16:25:00,71.5,67.4,30.02,WSW,248,4.0,9.0,87,0.00,,,0.00,185,Wunderground v.1.15,2013-02-06 02:25:00,
2013-02-05 16:35:00,71.6,67.5,30.03,WSW,239,6.0,9.0,87,0.00,,,0.00,142,Wunderground v.1.15,2013-02-06 02:35:00,
2013-02-05 16:46:00,71.3,67.2,30.03,WSW,256,8.0,8.0,87,0.00,,,0.00,139,Wunderground v.1.15,2013-02-06 02:46:00,
2013-02-05 16:56:00,71.2,67.1,30.03,WSW,250,5.0,7.0,87,0.00,,,0.00,156,Wunderground v.1.15,2013-02-06 02:56:00,
2013-02-05 17:10:00,71.5,67.1,30.03,WSW,258,5.0,5.0,86,0.00,,,0.00,118,Wunderground v.1.15,2013-02-06 03:10:00,
2013-02-05 17:20:00,72.0,67.2,30.04,SSW,211,4.0,4.0,85,0.00,,,0.00,171,Wunderground v.1.15,2013-02-06 03:20:00,
2013-02-05 17:25:00,72.2,67.1,30.04,South,190,2.0,4.0,84,0.00,,,0.00,127,Wunderground v.1.15,2013-02-06 03:25:00,
2013-02-05 17:30:00,72.2,67.1,30.04,SW,228,3.0,5.0,84,0.00,,,0.00,109,Wunderground v.1.15,2013-02-06 03:30:00,
2013-02-05 17:40:00,72.3,67.2,30.04,SW,227,3.0,4.0,84,0.00,,,0.00,72,Wunderground v.1.15,2013-02-06 03:40:00,
2013-02-05 17:45:00,72.2,67.1,30.04,SW,230,4.0,4.0,84,0.00,,,0.00,54,Wunderground v.1.15,2013-02-06 03:45:00,
2013-02-05 17:50:00,72.0,67.2,30.04,SW,230,4.0,4.0,85,0.00,,,0.00,46,Wunderground v.1.15,2013-02-06 03:50:00,
2013-02-05 18:00:00,71.3,66.9,30.04,SW,230,3.0,4.0,86,0.00,,,0.00,18,Wunderground v.1.15,2013-02-06 04:00:00,
2013-02-05 18:10:00,70.8,66.7,30.05,SW,230,2.0,2.0,87,0.00,,,0.00,9,Wunderground v.1.15,2013-02-06 04:10:00,
2013-02-05 18:15:00,70.5,66.4,30.05,SW,230,3.0,3.0,87,0.00,,,0.00,5,Wunderground v.1.15,2013-02-06 04:15:00,
2013-02-05 18:20:00,70.3,66.6,30.05,SW,230,2.0,2.0,88,0.00,,,0.00,0,Wunderground v.1.15,2013-02-06 04:20:00,
2013-02-05 18:25:00,70.0,66.3,30.05,SW,231,2.0,2.0,88,0.00,,,0.00,0,Wunderground v.1.15,2013-02-06 04:25:00,
2013-02-05 18:35:00,69.6,66.2,30.05,SW,231,1.0,2.0,89,0.00,,,0.00,0,Wunderground v.1.15,2013-02-06 04:35:00,
2013-02-05 18:40:00,69.3,65.9,30.05,SW,231,2.0,2.0,89,0.00,,,0.00,0,Wunderground v.1.15,2013-02-06 04:40:00,
2013-02-05 18:45:00,69.0,65.6,30.05,SW,231,1.0,2.0,89,0.00,,,0.00,0,Wunderground v.1.15,2013-02-06 04:45:00,
2013-02-05 18:55:00,68.5,65.4,30.05,West,276,2.0,5.0,90,0.00,,,0.00,0,Wunderground v.1.15,2013-02-06 04:55:00,
2013-02-05 19:00:00,68.4,65.4,30.06,West,277,3.0,3.0,90,0.00,,,0.00,0,Wunderground v.1.15,2013-02-06 05:00:00,
2013-02-05 19:05:00,68.2,65.2,30.06,West,277,3.0,3.0,90,0.00,,,0.00,0,Wunderground v.1.15,2013-02-06 05:05:00,
2013-02-05 19:10:00,68.2,65.2,30.06,West,277,2.0,3.0,90,0.00,,,0.00,0,Wunderground v.1.15,2013-02-06 05:10:00,
2013-02-05 19:15:00,68.2,65.2,30.07,West,277,2.0,3.0,90,0.00,,,0.00,0,Wunderground v.1.15,2013-02-06 05:15:00,
2013-02-05 19:20:00,68.0,65.0,30.06,West,277,1.0,1.0,90,0.00,,,0.00,0,Wunderground v.1.15,2013-02-06 05:20:00,
2013-02-05 19:30:00,67.3,64.3,30.07,West,277,0.0,0.0,90,0.00,,,0.00,0,Wunderground v.1.15,2013-02-06 05:30:00,
2013-02-05 19:40:00,66.7,64.3,30.07,West,277,1.0,1.0,92,0.00,,,0.00,0,Wunderground v.1.15,2013-02-06 05:40:00,
2013-02-05 19:45:00,66.8,64.4,30.07,West,277,1.0,1.0,92,0.00,,,0.00,0,Wunderground v.1.15,2013-02-06 05:45:00,
2013-02-05 19:50:00,66.7,64.3,30.08,West,277,0.0,0.0,92,0.00,,,0.00,0,Wunderground v.1.15,2013-02-06 05:50:00,
2013-02-05 19:55:00,66.6,64.2,30.08,West,277,0.0,0.0,92,0.00,,,0.00,0,Wunderground v.1.15,2013-02-06 05:55:00,
2013-02-05 20:00:00,66.5,64.1,30.08,West,277,1.0,3.0,92,0.00,,,0.00,0,Wunderground v.1.15,2013-02-06 06:00:00,
2013-02-05 20:10:00,66.1,64.0,30.08,West,277,2.0,3.0,93,0.00,,,0.00,0,Wunderground v.1.15,2013-02-06 06:10:00,
2013-02-05 20:15:00,66.1,64.0,30.09,West,279,2.0,3.0,93,0.00,,,0.00,0,Wunderground v.1.15,2013-02-06 06:15:00,
2013-02-05 20:20:00,66.0,63.9,30.09,West,279,2.0,2.0,93,0.00,,,0.00,0,Wunderground v.1.15,2013-02-06 06:20:00,
2013-02-05 20:30:00,65.7,63.6,30.09,West,279,2.0,2.0,93,0.00,,,0.00,0,Wunderground v.1.15,2013-02-06 06:30:00,
2013-02-05 20:40:00,65.7,63.6,30.09,West,279,2.0,2.0,93,0.00,,,0.00,0,Wunderground v.1.15,2013-02-06 06:40:00,
2013-02-05 20:50:00,65.1,62.7,30.09,WNW,286,2.0,3.0,92,0.00,,,0.00,0,Wunderground v.1.15,2013-02-06 06:50:00,
2013-02-05 20:55:00,65.4,62.4,30.09,WNW,290,3.0,3.0,90,0.00,,,0.00,0,Wunderground v.1.15,2013-02-06 06:55:00,
2013-02-05 21:00:00,65.2,61.6,30.08,WNW,290,2.0,2.0,88,0.00,,,0.00,0,Wunderground v.1.15,2013-02-06 07:00:00,
2013-02-05 21:10:00,64.4,60.8,30.09,WNW,290,2.0,3.0,88,0.00,,,0.00,0,Wunderground v.1.15,2013-02-06 07:10:00,
2013-02-05 21:15:00,64.2,60.9,30.09,WNW,293,3.0,3.0,89,0.00,,,0.00,0,Wunderground v.1.15,2013-02-06 07:15:00,
2013-02-05 21:25:00,64.1,60.8,30.09,NW,318,3.0,4.0,89,0.00,,,0.00,0,Wunderground v.1.15,2013-02-06 07:25:00,
2013-02-05 21:30:00,64.0,61.0,30.09,NW,320,4.0,4.0,90,0.00,,,0.00,0,Wunderground v.1.15,2013-02-06 07:30:00,
2013-02-05 21:40:00,64.7,61.4,30.08,NW,320,3.0,3.0,89,0.00,,,0.00,0,Wunderground v.1.15,2013-02-06 07:40:00,
2013-02-05 21:50:00,65.0,61.7,30.09,NW,320,1.0,1.0,89,0.00,,,0.00,0,Wunderground v.1.15,2013-02-06 07:50:00,
2013-02-05 21:55:00,64.8,61.2,30.08,NW,320,1.0,3.0,88,0.00,,,0.00,0,Wunderground v.1.15,2013-02-06 07:55:00,
2013-02-05 22:00:00,64.6,61.0,30.08,NW,320,3.0,4.0,88,0.00,,,0.00,0,Wunderground v.1.15,2013-02-06 08:00:00,
2013-02-05 22:10:00,64.3,60.3,30.08,NW,320,2.0,2.0,87,0.00,,,0.00,0,Wunderground v.1.15,2013-02-06 08:10:00,
2013-02-05 22:15:00,64.0,60.1,30.09,NW,320,0.0,2.0,87,0.00,,,0.00,0,Wunderground v.1.15,2013-02-06 08:15:00,
2013-02-05 22:20:00,63.5,59.9,30.09,NW,320,0.0,0.0,88,0.00,,,0.00,0,Wunderground v.1.15,2013-02-06 08:20:00,
2013-02-05 22:30:00,62.7,59.1,30.09,NW,319,2.0,2.0,88,0.00,,,0.00,0,Wunderground v.1.15,2013-02-06 08:30:00,
2013-02-05 22:35:00,62.4,58.8,30.09,NW,319,1.0,2.0,88,0.00,,,0.00,0,Wunderground v.1.15,2013-02-06 08:35:00,
2013-02-05 22:40:00,62.2,58.6,30.08,NW,319,0.0,0.0,88,0.00,,,0.00,0,Wunderground v.1.15,2013-02-06 08:40:00,
2013-02-05 22:50:00,61.7,58.4,30.09,NW,319,0.0,0.0,89,0.00,,,0.00,0,Wunderground v.1.15,2013-02-06 08:50:00,
2013-02-05 22:55:00,61.8,58.8,30.09,NW,319,0.0,4.0,90,0.00,,,0.00,0,Wunderground v.1.15,2013-02-06 08:55:00,
2013-02-05 23:00:00,62.4,59.1,30.09,NW,319,2.0,2.0,89,0.00,,,0.00,0,Wunderground v.1.15,2013-02-06 09:00:00,
2013-02-05 23:10:00,62.4,59.1,30.09,NW,319,1.0,1.0,89,0.00,,,0.00,0,Wunderground v.1.15,2013-02-06 09:10:00,
2013-02-05 23:15:00,62.3,59.3,30.09,NW,319,1.0,3.0,90,0.00,,,0.00,0,Wunderground v.1.15,2013-02-06 09:15:00,
2013-02-05 23:20:00,62.5,59.5,30.09,NW,319,3.0,3.0,90,0.00,,,0.00,0,Wunderground v.1.15,2013-02-06 09:20:00,
2013-02-05 23:30:00,62.9,59.9,30.09,NW,319,3.0,3.0,90,0.00,,,0.00,0,Wunderground v.1.15,2013-02-06 09:30:00,
2013-02-05 23:35:00,63.0,60.3,30.08,NW,319,3.0,3.0,91,0.00,,,0.00,0,Wunderground v.1.15,2013-02-06 09:35:00,
2013-02-05 23:40:00,63.3,60.9,30.09,NW,319,2.0,5.0,92,0.00,,,0.00,0,Wunderground v.1.15,2013-02-06 09:40:00,
2013-02-05 23:50:00,64.4,61.7,30.08,NW,318,3.0,3.0,91,0.00,,,0.00,0,Wunderground v.1.15,2013-02-06 09:50:00,
2013-02-05 23:55:00,64.6,61.9,30.08,NW,318,3.0,4.0,91,0.00,,,0.00,0,Wunderground v.1.15,2013-02-06 09:55:00,